This demonstration page uses our WeatherBlox Daily Observations layout. Learn more.

36.17497, -115.13722

Hourly Observations for September 28, 2020

Temp ( °F °C ) Dew Point ( °F °C ) Humidity (%) Winds ( mph kmh ) Pressure ( in mb ) Visibility ( mi km ) Precip ( " mm )
12:53 am 00:53 Clear 82 27.8 32 0 16 16 VRB 5 7 29.97 1015 10 16.0934 0 0
1:53 am 01:53 Clear 80 26.7 31 -0.6 17 17 NE 10 17 29.99 1016 10 16.0934 0 0
2:53 am 02:53 Clear 78 25.6 31 -0.6 18 18 E 8 13 30 1016 10 16.0934 0 0
3:53 am 03:53 Clear 79 26.1 32 0 18 18 N 8 13 30.01 1016 10 16.0934 0 0
4:53 am 04:53 Clear 77 25 32 0 19 19 N 9 15 30.02 1017 10 16.0934 0 0
5:53 am 05:53 Clear 77 25 31 -0.6 18 18 N 15 24 30.04 1017 10 16.0934 0 0
6:53 am 06:53 Sunny 76 24.4 29 -1.7 18 18 NNW 18 30 30.07 1018 10 16.0934 0 0
7:53 am 07:53 Sunny 77 25 28 -2.2 16 16 NNW 10 17 30.11 1020 10 16.0934 0 0
8:53 am 08:53 Sunny 79 26.1 27 -2.8 15 15 N 13 20 30.11 1020 10 16.0934 0 0
9:53 am 09:53 Sunny 82 27.8 26 -3.3 13 13 NNW 15 24 30.12 1020 10 16.0934 0 0
10:53 am 10:53 Sunny 83 28.3 24 -4.4 11 11 NNW 9 15 30.12 1020 10 16.0934 0 0
11:53 am 11:53 Sunny 85 29.4 24 -4.4 11 11 VRB 5 7 30.11 1020 10 16.0934 0 0
12:53 pm 12:53 Sunny 88 31.1 24 -4.4 10 10 Calm 30.08 1019 10 16.0934 0 0
1:53 pm 13:53 Sunny 91 32.8 21 -6.1 8 8 ENE 10 17 30.05 1018 10 16.0934 0 0
2:53 pm 14:53 Sunny 91 32.8 20 -6.7 7 7 NNE 13 20 30.02 1017 10 16.0934 0 0
3:53 pm 15:53 Sunny 93 33.9 20 -6.7 7 7 ENE 10 17 30.01 1016 10 16.0934 0 0
4:53 pm 16:53 Sunny 91 32.8 20 -6.7 7 7 ESE 10 17 30 1016 10 16.0934 0 0
5:53 pm 17:53 Sunny 90 32.2 20 -6.7 8 8 ENE 13 20 30 1016 10 16.0934 0 0
6:53 pm 18:53 Clear 88 31.1 19 -7.2 8 8 NE 6 9 30.01 1016 10 16.0934 0 0
7:53 pm 19:53 Clear 86 30 20 -6.7 9 9 N 6 9 30.02 1017 10 16.0934 0 0
8:53 pm 20:53 Clear 82 27.8 27 -2.8 13 13 WNW 5 7 30.04 1017 10 16.0934 0 0
9:53 pm 21:53 Clear 81 27.2 24 -4.4 12 12 NNE 5 7 30.05 1018 10 16.0934 0 0
10:53 pm 22:53 Clear 79 26.1 25 -3.9 14 14 Calm 30.07 1018 10 16.0934 0 0
11:53 pm 23:53 Clear 76 24.4 27 -2.8 16 16 W 5 7 30.07 1018 10 16.0934 0 0

Powered by AerisWeather